Regional Weather Roundup
Issued by NWS

Home | Current Version | Previous Version | Graphics & Text | Print | Product List | Glossary On
Versions: 1 2 3 4 5 6 7 8 9 10 11 12 13 14 15 16 17 18 19 20 21 22 23 24 25 26 27 28 29 30 31 32 33 34 35 36 37 38 39 40 41 42 43 44 45 46 47 48 49 50
000
ASUS43 KIND 010259
RWRIN

WEATHER ROUNDUP FOR INDIANA
NATIONAL WEATHER SERVICE INDIANAPOLIS IN
1100 PM EDT TUE JUN 30 2015

NOTE: "FAIR" INDICATES FEW OR NO CLOUDS BELOW 12,000 FEET WITH NO
SIGNIFICANT WEATHER AND/OR OBSTRUCTIONS TO VISIBILITY.

* - STATION DOES NOT REPORT WEATHER SUCH AS PRECIPITATION OR FOG.

+ - STATION NOT QUALITY CONTROLLED BY THE NATIONAL WEATHER SERVICE.
    USE DATA WITH CAUTION...ESPECIALLY DEWPOINT AND RELATIVE
    HUMIDITY OBSERVATIONS.

INZ001>003-010>013-019-020-010400-
NORTHWEST INDIANA

CITY           SKY/WX    TMP DP  RH WIND       PRES   REMARKS
GARY /AIRPORT/ PTCLDY   N/A N/A N/A N5        29.91R
KNOX *+        CLEAR     59  59 100 N8        29.89R
MONTICELLO +   CLEAR     67  62  86 N6        29.88R
RENSSELAER +   PTCLDY    64  63  94 NE6       29.90R

$$

LMZ046-743>745-010400-
SOUTHERN LAKE MICHIGAN

STATION/POSITION TIME  TEMP    WIND        PRES    WAVE
                       AIR SEA DIR/SP/G            HT
                 (UTC) (F)     (DEG/KT/KT) (MB)    (FT)
BURNS HARBOR     0200   60      30/  6/  8 1013.2R
MICHIGAN CITY    0200   60     360/ 11/ 13   N/A
5NW MICH CITY    0200   62 65   40/  8/ 12   N/A     2

$$

INZ004-005-014>016-021>024-010400-
NORTH CENTRAL INDIANA

CITY           SKY/WX    TMP DP  RH WIND       PRES   REMARKS
GOSHEN         CLEAR     61  58  90 W7        29.87R
SOUTH BEND     PTCLDY    61  57  87 N6        29.89R
WARSAW +         N/A     61  57  88 NW6       29.88R

$$

INZ006>009-017-018-025>027-010400-
NORTHEAST INDIANA

CITY           SKY/WX    TMP DP  RH WIND       PRES   REMARKS
ANGOLA *+      CLEAR     63  59  88 NW7       29.85R
FORT WAYNE     PTCLDY    66  59  78 W9        29.86R

$$

INZ028-029-035-036-043>045-051>053-010400-
WEST CENTRAL INDIANA

CITY           SKY/WX    TMP DP  RH WIND       PRES   REMARKS
CRAWFORDSVL +  CLEAR     65  60  82 N6        29.89R
GREENCASTLE +  CLEAR     64  63  94 CALM      29.89R FOG
LAFAYETTE      CLEAR     67  61  81 NE5       29.88R
TERRE HAUTE    CLEAR     68  65  90 CALM      29.88R

$$

INZ030>032-037>040-046>048-054>057-064-065-010400-
CENTRAL INDIANA

CITY           SKY/WX    TMP DP  RH WIND       PRES   REMARKS
FRANKFORT +    PTCLDY    68  65  89 N3        29.91R
GREENWOOD *+   CLEAR     68  61  77 CALM      29.88R
INDIANAPOLIS   PTCLDY    71  61  70 NW5       29.86R
-EAGLE CREEK   CLEAR     69  64  84 NW3       29.87R
KOKOMO *+      PTCLDY    66  61  82 N7        29.88R
MT COMFORT *+  CLEAR     68  59  73 N7        29.88R
SHELBYVILLE    PTCLDY    68  60  75 CALM      29.87R

$$

INZ033-034-041-042-049-050-058-059-010400-
EAST CENTRAL INDIANA

CITY           SKY/WX    TMP DP  RH WIND       PRES   REMARKS
MUNCIE         CLEAR     67  62  84 N3        29.88R

$$

INZ060-061-067>069-081>083-085>088-010400-
SOUTHWEST INDIANA

CITY           SKY/WX    TMP DP  RH WIND       PRES   REMARKS
EVANSVILLE     PTCLDY    74  68  81 CALM      29.90R
HUNTINGBURG *+ CLEAR     72  66  83 SW9       29.89S

$$

INZ062-063-066-070>080-084-089>092-010400-
SOUTH CENTRAL AND SOUTHEAST INDIANA

CITY           SKY/WX    TMP DP  RH WIND       PRES   REMARKS
BLOOMINGTON    PTCLDY    66  64  93 CALM      29.89R FOG
MADISON *+     MOCLDY    66  63  88 CALM      29.93R
SEYMOUR +      MOCLDY    68  66  94 S3        29.88R

$$




USA.gov is the U.S. government's official web portal to all federal, state and local government web resources and services.